736  
ASUS41 KPHI 081910  
RWRPHI  
 
REGIONAL WEATHER ROUNDUP  
NATIONAL WEATHER SERVICE MOUNT HOLLY NJ  
200 PM EST THU DEC 08 2022  
 
NOTE: "FAIR" INDICATES FEW OR NO CLOUDS BELOW 12,000 FEET WITH NO  
SIGNIFICANT WEATHER AND/OR S TO VISIBILITY
.  
 
* = STATION DOES NOT REPORT PRECIPITATION (E.G. RAIN, SNOW, ETC.)  
OR FOG.
 
 
NJZ015>026-082000-  
SOUTHERN NEW JERSEY  
 
CITY SKY/WX TMP DP RH WIND PRES REMARKS
 
POMONA PTSUNNY 54 37 52 N13 30.20F  
WILDWOOD* PTSUNNY 55 42 61 N3 30.21F  
MILLVILLE CLOUDY 54 39 57 N12 30.20F  
WRIGHTSTOWN PTSUNNY 52 38 59 NW10 30.20F  
MOUNT HOLLY PTSUNNY 53 38 56 N7 30.21F  
TRENTON PTSUNNY 51 38 60 NW14 30.21F  
 

 
NJZ001>014-082000-  
NORTHERN NEW JERSEY  
 
CITY SKY/WX TMP DP RH WIND PRES REMARKS
 
SUSSEX PTSUNNY 50 36 58 VRB5 30.22F  
ANDOVER* N/A 51 33 50 N6 30.21F  
MORRISTOWN PTSUNNY 52 39 62 NW9 30.22F  
NEWARK PTSUNNY 55 35 47 NW14 30.20F  
TETERBORO PTSUNNY 52 36 54 NW15G22 30.19S  
CALDWELL PTSUNNY 51 35 54 NW12 30.21S  
SOMERVILLE PTSUNNY 52 34 50 NW10 30.21S  
ALLAIRE* PTSUNNY 54 38 54 NW12 30.21S  
 

 
PAZ043-044-047-054-055-060>062-066>071-082000-  
EASTERN PENNSYLVANIA  
 
CITY SKY/WX TMP DP RH WIND PRES REMARKS
 
PHILADELPHIA CLOUDY 53 39 59 N14G21 30.24S  
NORTH PHILA CLOUDY 52 37 56 N10 30.23F  
BLUE BELL* PTSUNNY 49 37 62 N9 30.24S  
DOYLESTOWN PTSUNNY 50 33 52 N9 30.22F  
QUAKERTOWN* PTSUNNY 48 34 57 NW8G14 30.24F  
PERKASIE* MOCLDY 46 32 57 N10G18 30.23F  
LANCASTER PTSUNNY 51 36 56 N12 30.25F  
COATESVILLE CLOUDY 50 41 71 N12 30.24F  
WEST CHESTER CLOUDY 50 37 62 N8 30.23F  
READING PTSUNNY 50 35 56 N10 30.24F  
ALLENTOWN PTSUNNY 48 31 51 N13G22 30.24F  
QN CITY/ALNTWN FAIR 48 34 57 NW15 30.25F  
MOUNT POCONO CLOUDY 39 29 67 NW12G20 30.20F WCI 32  
HAZLETON CLOUDY 41 32 70 NW8 30.25F  
LEHIGHTON MOCLDY 46 30 53 N5 30.25F  
WILKES BARRE CLOUDY 45 33 63 NW8 30.24F  
 

 
DEZALL-MDZ008-012-015-019-020-082000-  
DELAWARE AND EASTERN MARYLAND  
 
CITY SKY/WX TMP DP RH WIND PRES REMARKS
 
WILMINGTON CLOUDY 55 38 52 N7 30.23F  
DOVER CLOUDY 53 37 54 N10 30.19F  
CHESWOLD CLEAR 54 39 58 N9 30.21F  
GEORGETOWN CLOUDY 56 40 55 N8 30.21F  
EASTON MOSUNNY 54 43 66 N9 30.27F  
STEVENSVILLE CLOUDY 52 44 74 N3 30.25S  
ABERDEEN CLOUDY 53 40 60 N7 30.22F  
PATUXENT CLOUDY 55 43 62 N9 30.25S  
OCEAN CITY CLOUDY 54 41 61 N7 30.19F  
WALLOPS ISLAND CLOUDY 56 44 64 N6 30.21F  
CAMBRIDGE SUNNY 55 43 62 N10 30.23R  
SALISBURY CLOUDY 56 42 59 N7 30.22F  
 

 
PAZ001-021-NYZ056-072-MDZ011-DCZ001-082000-  
OTHER NEARBY LOCATIONS  
 
CITY SKY/WX TMP DP RH WIND PRES REMARKS
 
HARRISBURG CLOUDY 49 37 63 N6 30.25F  
STATE COLLEGE PTSUNNY 45 34 65 N3 30.26F  
WILLIAMSPORT CLOUDY 47 30 51 N8 30.26F  
BINGHAMTON CLOUDY 38 30 73 NW9 30.24S WCI 31  
NEW YORK CITY PTSUNNY 53 35 50 MISG 30.22S  
BALTIMORE CLOUDY 57 38 48 N8 30.24S  
WASHINGTON DC CLOUDY 57 42 57 N6 30.25F  
 

 
 
 
CLICK HERE TO GO TO PREVIOUS BULLETINS.

The Nexlab PA Page
The Nexlab NJ Page
The Nexlab DE Page
The Nexlab MD Page Main Text Page